Terminal Aerodrome Forecast
Issued by NWS

Home | Current Version | Previous Version | Text Only | Print | Product List | Glossary On
Versions: 1 2 3 4 5 6 7 8 9 10 11 12 13 14 15 16 17 18
000
FTUS45 KGGW 222300
TAFSDY
TAF
KSDY 222320Z 2300/2324 33015KT P6SM VCSH OVC019
     FM230600 32014KT P6SM OVC025
     FM231500 31015KT P6SM OVC050
     FM232100 29010KT P6SM BKN250
      AMD LTD TO CLD VIS AND WIND=

USA.gov is the U.S. government's official web portal to all federal, state and local government web resources and services.